Weather History for Hamilton, OH

Change the Weather History Date:

Thursday, April 11, 2013

  Actual Average (KCVG) Record (KCVG)
Temperature  
Mean Temperature 64 °F 53 °F  
Max Temperature 68 °F 63 °F 90 °F (1930)
Min Temperature 59 °F 42 °F 23 °F (1989)
Degree Days  
Heating Degree Days 2 13  
Month to date heating degree days 158  
Since 1 July heating degree days 4651  
Cooling Degree Days 0 0  
Month to date cooling degree days 0  
Year to date cooling degree days 0  
Growing Degree Days 14 (Base 50)    
Moisture  
Dew Point 59 °F    
Average Humidity 91    
Maximum Humidity 100    
Minimum Humidity 73    
Precipitation  
Precipitation 1.11 in 0.13 in 1.66 in (2011)
Month to date precipitation 1.40  
Year to date precipitation 11.17  
Snow  
Snow 0.00 in 0.00 in 0.00 in ()
Month to date snowfall 0.3  
Since 1 July snowfall 21.9  
Snow Depth -    
Sea Level Pressure  
Sea Level Pressure 29.69 in    
Wind  
Wind Speed 4 mph (South)    
Max Wind Speed 12 mph    
Max Gust Speed 17 mph    
Visibility 6 miles    
Events Fog , Rain , Thunderstorm    
T = Trace of Precipitation, MM = Missing Value Source: NWS Daily Summary

Daily Weather History Graph

Daily Weather History Graph

Search for Another Location

Airport:

Trip Planner

Search our weather history database for the weather conditions in past years. The results will help you decide how hot, cold, wet, or windy it might be!

Date:

Astronomy

Apr. 11, 2013 Rise Set
Actual Time 7:06 AM EDT 8:12 PM EDT
Civil Twilight 6:39 AM EDT 8:39 PM EDT
Nautical Twilight 6:06 AM EDT 9:12 PM EDT
Astronomical Twilight 5:32 AM EDT 9:46 PM EDT
Moon 7:38 AM EDT (4/11) 9:45 PM EDT (4/11)
Length of Visible Light 14h 00m
Length of Day
13h 05m
New Moon, 2% of the Moon is Illuminated
Apr 11
New Moon
Apr 18
First Quarter
Apr 25
Full
May 2
Last Quarter
May 9
New

Hourly Weather History & Observations

Time (EDT) Temp. Dew Point Humidity Pressure Visibility Wind Dir Wind Speed Gust Speed Precip Events Conditions
12:53 AM 64.0 °F 55.9 °F 75% 29.81 in 10.0 mi East 4.6 mph - N/A   Partly Cloudy
1:53 AM 63.0 °F 55.9 °F 78% 29.80 in 10.0 mi East 4.6 mph - N/A   Partly Cloudy
2:53 AM 63.0 °F 55.9 °F 78% 29.77 in 10.0 mi ESE 5.8 mph - N/A   Clear
3:53 AM 63.0 °F 55.9 °F 78% 29.74 in 10.0 mi Calm Calm - N/A   Clear
4:53 AM 61.0 °F 55.9 °F 83% 29.75 in 10.0 mi ENE 3.5 mph - N/A   Mostly Cloudy
5:53 AM 66.0 °F 57.0 °F 73% 29.78 in 10.0 mi NW 11.5 mph - N/A   Mostly Cloudy
6:53 AM 62.1 °F 57.9 °F 86% 29.79 in 5.0 mi NNE 4.6 mph - 0.06 in Rain Rain
7:53 AM 61.0 °F 59.0 °F 93% 29.83 in 3.0 mi NNE 3.5 mph - 0.12 in Rain Rain
8:38 AM 60.8 °F 59.0 °F 94% 29.83 in 2.5 mi Calm Calm - 0.09 in Rain , Thunderstorm Rain
8:53 AM 60.1 °F 59.0 °F 96% 29.79 in 2.0 mi Variable 6.9 mph 17.3 mph 0.15 in Rain Rain
9:09 AM 60.8 °F 60.8 °F 100% 29.77 in 4.0 mi ESE 8.1 mph - 0.03 in Rain Rain
9:53 AM 61.0 °F 60.1 °F 97% 29.76 in 3.0 mi ESE 10.4 mph 16.1 mph 0.11 in Rain Rain
10:53 AM 62.1 °F 60.1 °F 93% 29.73 in 10.0 mi Variable 5.8 mph - 0.03 in   Mostly Cloudy
11:53 AM 64.0 °F 61.0 °F 90% 29.75 in 10.0 mi Variable 5.8 mph - 0.00 in Rain Light Rain
1:53 PM 64.9 °F 62.1 °F 90% 29.74 in 9.0 mi Calm Calm - 0.02 in Rain Light Rain
3:53 PM 68.0 °F 61.0 °F 78% 29.67 in 10.0 mi South 5.8 mph - 0.00 in   Overcast
4:53 PM 66.0 °F 57.9 °F 75% 29.65 in 10.0 mi SW 8.1 mph - 0.00 in Rain Light Rain
5:48 PM 62.6 °F 60.8 °F 94% 29.64 in 1.2 mi Calm Calm - 0.06 in Rain Light Rain
5:51 PM 62.6 °F 60.8 °F 94% 29.65 in 0.8 mi Calm Calm - 0.09 in Rain Heavy Rain
5:53 PM 63.0 °F 61.0 °F 93% 29.63 in 0.5 mi Calm Calm - 0.12 in Fog , Rain Heavy Rain
6:14 PM 62.6 °F 60.8 °F 94% 29.65 in 0.8 mi Calm Calm - 0.17 in Rain Heavy Rain
6:17 PM 62.6 °F 60.8 °F 94% 29.65 in 1.0 mi Calm Calm - 0.18 in Rain Rain
6:22 PM 62.6 °F 60.8 °F 94% 29.64 in 1.8 mi Calm Calm - 0.20 in Rain Rain
6:37 PM 62.6 °F 60.8 °F 94% 29.65 in 1.5 mi SW 5.8 mph - 0.25 in Rain Rain
6:51 PM 62.6 °F 60.8 °F 94% 29.64 in 1.5 mi SW 4.6 mph - 0.30 in Rain Rain
6:53 PM 61.0 °F 61.0 °F 100% 29.64 in 1.8 mi SW 5.8 mph - 0.31 in Rain Rain
7:00 PM 60.8 °F 60.8 °F 100% 29.64 in 3.0 mi WSW 6.9 mph - 0.01 in Rain Light Rain
7:38 PM 60.8 °F 60.8 °F 100% 29.66 in 2.0 mi SW 5.8 mph - 0.07 in Rain Rain
7:53 PM 61.0 °F 61.0 °F 100% 29.65 in 2.5 mi WSW 3.5 mph - 0.11 in Rain Rain
8:53 PM 60.1 °F 59.0 °F 96% 29.62 in 9.0 mi ESE 3.5 mph - 0.06 in Rain Light Rain
9:53 PM 59.0 °F 59.0 °F 100% 29.57 in 10.0 mi ESE 3.5 mph - 0.01 in   Mostly Cloudy
10:48 PM 60.8 °F 57.2 °F 88% 29.60 in 8.0 mi WSW 4.6 mph - N/A   Overcast
10:53 PM 60.1 °F 59.0 °F 96% 29.60 in 8.0 mi SSW 4.6 mph - N/A   Overcast
11:12 PM 59.0 °F 57.2 °F 94% 29.59 in 6.0 mi Calm Calm - 0.01 in Rain Light Rain
11:36 PM 59.0 °F 57.2 °F 94% 29.57 in 10.0 mi Calm Calm - 0.01 in   Overcast
11:53 PM 59.0 °F 59.0 °F 100% 29.56 in 8.0 mi Calm Calm - 0.01 in Rain Light Rain